TimePDT,TemperatureF,Dew PointF,Humidity,Sea Level PressureIn,VisibilityMPH,Wind Direction,Wind SpeedMPH,Gust SpeedMPH,PrecipitationIn,Events,Conditions,WindDirDegrees,DateUTC
12:56 AM,41.0,24.1,51,30.12,10.0,NNW,6.9,-,N/A,,Clear,330,2012-10-30 07:56:00
1:56 AM,39.0,23.0,53,30.12,10.0,NNW,6.9,-,N/A,,Clear,340,2012-10-30 08:56:00
2:56 AM,41.0,24.1,51,30.11,10.0,NNW,6.9,-,N/A,,Clear,330,2012-10-30 09:56:00
3:56 AM,39.9,24.1,53,30.10,10.0,NW,5.8,-,N/A,,Clear,310,2012-10-30 10:56:00
4:56 AM,35.6,21.2,56,30.18,10.0,North,5.8,-,N/A,,Clear,360,2012-10-30 11:56:00
5:56 AM,37.9,23.0,55,30.12,10.0,NW,8.1,-,N/A,,Clear,320,2012-10-30 12:56:00
6:56 AM,36.0,23.0,59,30.13,10.0,North,5.8,-,N/A,,Clear,350,2012-10-30 13:56:00
7:56 AM,36.0,23.0,59,30.17,10.0,NNW,5.8,-,N/A,,Clear,330,2012-10-30 14:56:00
8:56 AM,48.9,24.1,38,30.15,10.0,Calm,Calm,-,N/A,,Clear,0,2012-10-30 15:56:00
9:56 AM,57.2,24.8,29,30.20,10.0,North,3.5,-,N/A,,Clear,350,2012-10-30 16:56:00
10:56 AM,64.0,24.1,22,30.12,10.0,Calm,Calm,-,N/A,,Clear,0,2012-10-30 17:56:00
11:56 AM,66.9,23.0,19,30.10,10.0,Calm,Calm,-,N/A,,Clear,0,2012-10-30 18:56:00
12:56 PM,71.1,21.9,16,30.06,10.0,Calm,Calm,-,N/A,,Clear,0,2012-10-30 19:56:00
1:56 PM,73.0,21.9,15,30.03,10.0,Variable,4.6,-,N/A,,Clear,0,2012-10-30 20:56:00
2:56 PM,75.9,21.9,13,29.99,10.0,Variable,5.8,-,N/A,,Clear,0,2012-10-30 21:56:00
3:56 PM,75.9,19.9,12,29.97,10.0,SSE,15.0,-,N/A,,Clear,160,2012-10-30 22:56:00
4:56 PM,73.9,19.0,13,29.97,10.0,South,16.1,20.7,N/A,,Clear,180,2012-10-30 23:56:00
5:56 PM,69.1,21.9,17,29.98,10.0,South,13.8,-,N/A,,Clear,180,2012-10-31 00:56:00
6:56 PM,64.9,19.9,18,30.02,10.0,SSE,9.2,-,N/A,,Clear,150,2012-10-31 01:56:00
7:56 PM,57.9,21.0,24,30.04,10.0,South,4.6,-,N/A,,Clear,190,2012-10-31 02:56:00
8:56 PM,50.0,21.0,32,30.04,10.0,North,8.1,-,N/A,,Clear,360,2012-10-31 03:56:00
9:56 PM,48.0,21.9,36,30.06,10.0,NNW,5.8,-,N/A,,Clear,330,2012-10-31 04:56:00
10:56 PM,41.0,23.0,49,30.06,10.0,WNW,4.6,-,N/A,,Clear,300,2012-10-31 05:56:00
11:56 PM,41.0,21.9,47,30.06,10.0,NW,4.6,-,N/A,,Clear,320,2012-10-31 06:56:00